Glasgow, KY

6:25 AM CDT on April 30, 2017 (GMT -0500)
Glasgow Municipal

Weather History for KGLW - January, 2013

Change the Weather History Date:

Thursday, January 31, 2013

  Actual Average Record
Temperature  
Mean Temperature 32 °F -  
Max Temperature 40 °F 46 °F 69 °F (2016)
Min Temperature 22 °F 25 °F -8 °F (1965)
Degree Days  
Heating Degree Days 34    
Moisture  
Dew Point 8 °F    
Average Humidity 35    
Maximum Humidity 88    
Minimum Humidity 19    
Precipitation  
Precipitation 0.01 in - - ()
Sea Level Pressure  
Sea Level Pressure 30.00 in    
Wind  
Wind Speed 12 mph (West)    
Max Wind Speed 20 mph    
Max Gust Speed 29 mph    
Visibility 9 miles    
Events Snow    
Averages and records for this station are not official NWS values.
T = Trace of Precipitation, MM = Missing Value Source: NWS Daily Summary

Daily Weather History Graph

Daily Weather History Graph

Search for Another Location

Airport or City:

Trip Planner

Search our weather history database for the weather conditions in past years. The results will help you decide how hot, cold, wet, or windy it might be!

Date:

Astronomy

Jan. 31, 2013 Rise Set
Actual Time 6:46 AM CST 5:08 PM CST
Civil Twilight 6:19 AM CST 5:35 PM CST
Nautical Twilight 5:48 AM CST 6:06 PM CST
Astronomical Twilight 5:17 AM CST 6:37 PM CST
Moon 10:00 PM CST (1/31) 8:54 AM CST (1/31)
Length of Visible Light 11h 15m
Length of Day
10h 21m
Waning Gibbous, 79% of the Moon is Illuminated
Jan 31
Waning Gibbous
Feb 3
Last Quarter
Feb 10
New
Feb 17
First Quarter
Feb 25
Full

Hourly Weather History & Observations

Time (CST) Temp. Windchill Dew Point Humidity Pressure Visibility Wind Dir Wind Speed Gust Speed Precip Events Conditions
12:15 AM 32.9 °F 24.7 °F 9.1 °F 37% 29.86 in 10.0 mi West 10.4 mph 19.6 mph N/A   Overcast
12:35 AM 32.7 °F 23.0 °F 9.5 °F 38% 29.87 in 10.0 mi West 13.8 mph 26.5 mph N/A   Overcast
12:55 AM 32.2 °F 21.8 °F 9.1 °F 38% 29.88 in 10.0 mi West 15.0 mph 19.6 mph N/A   Overcast
1:15 AM 32.0 °F 24.2 °F 9.3 °F 39% 29.88 in 10.0 mi West 9.2 mph 21.9 mph N/A   Overcast
1:35 AM 32.0 °F 24.2 °F 9.9 °F 40% 29.89 in 10.0 mi West 9.2 mph 18.4 mph N/A   Overcast
1:55 AM 32.0 °F 24.8 °F 10.0 °F 40% 29.89 in 10.0 mi WNW 8.1 mph - N/A   Overcast
2:15 AM 32.0 °F 23.0 °F 9.9 °F 40% 29.89 in 10.0 mi West 11.5 mph 19.6 mph N/A   Overcast
2:35 AM 32.0 °F 22.1 °F 8.4 °F 37% 29.90 in 10.0 mi West 13.8 mph 17.3 mph N/A   Overcast
2:55 AM 31.6 °F 23.7 °F 9.0 °F 39% 29.91 in 10.0 mi West 9.2 mph - N/A   Overcast
3:15 AM 31.6 °F 25.1 °F 9.5 °F 40% 29.91 in 10.0 mi West 6.9 mph 18.4 mph N/A   Overcast
3:35 AM 31.5 °F 22.3 °F 8.2 °F 38% 29.91 in 10.0 mi West 11.5 mph 16.1 mph N/A   Overcast
3:55 AM 31.6 °F 21.2 °F 7.0 °F 35% 29.91 in 10.0 mi West 15.0 mph 21.9 mph N/A   Overcast
4:15 AM 31.5 °F 22.3 °F 3.9 °F 31% 29.92 in 10.0 mi WNW 11.5 mph 19.6 mph N/A   Overcast
4:35 AM 31.1 °F 23.7 °F 3.2 °F 31% 29.93 in 10.0 mi West 8.1 mph - N/A   Overcast
4:55 AM 31.1 °F 22.4 °F 3.7 °F 31% 29.93 in 10.0 mi West 10.4 mph 17.3 mph N/A   Overcast
5:15 AM 31.1 °F 23.1 °F 4.5 °F 32% 29.93 in 10.0 mi West 9.2 mph - N/A   Overcast
5:35 AM 31.1 °F 22.4 °F 3.7 °F 31% 29.94 in 10.0 mi West 10.4 mph - N/A   Overcast
6:15 AM 31.1 °F 21.9 °F 4.6 °F 33% 29.96 in 10.0 mi West 11.5 mph 19.6 mph N/A   Overcast
6:35 AM 31.1 °F 23.7 °F 5.2 °F 33% 29.96 in 10.0 mi West 8.1 mph 16.1 mph N/A   Overcast
6:55 AM 31.1 °F 23.1 °F 5.9 °F 35% 29.98 in 10.0 mi West 9.2 mph 17.3 mph N/A   Overcast
7:15 AM 30.4 °F 22.2 °F 6.4 °F 36% 30.00 in 10.0 mi NW 9.2 mph - N/A   Overcast
7:35 AM 29.8 °F 22.2 °F 6.1 °F 37% 30.00 in 10.0 mi West 8.1 mph - N/A   Overcast
7:55 AM 29.8 °F 22.2 °F 5.4 °F 35% 30.02 in 10.0 mi West 8.1 mph - N/A   Overcast
8:15 AM 30.0 °F 21.7 °F 6.4 °F 37% 30.03 in 5.0 mi West 9.2 mph 17.3 mph N/A Snow Light Snow
8:35 AM 30.0 °F 22.4 °F 8.4 °F 40% 30.03 in 10.0 mi WSW 8.1 mph - N/A   Overcast
8:55 AM 31.6 °F 20.7 °F 7.7 °F 37% 30.02 in 10.0 mi WSW 16.1 mph - N/A   Mostly Cloudy
9:15 AM 32.2 °F 23.2 °F 4.5 °F 31% 30.04 in 10.0 mi West 11.5 mph 20.7 mph N/A   Mostly Cloudy
9:35 AM 32.0 °F 21.2 °F 4.8 °F 32% 30.04 in 10.0 mi WSW 16.1 mph 19.6 mph N/A   Overcast
9:55 AM 32.5 °F 21.2 °F 6.1 °F 33% 30.05 in 10.0 mi WSW 18.4 mph 21.9 mph N/A   Overcast
10:15 AM 32.9 °F 21.3 °F 5.9 °F 32% 30.06 in 10.0 mi WSW 19.6 mph 26.5 mph N/A   Overcast
10:35 AM 33.3 °F 22.8 °F 6.1 °F 32% 30.06 in 10.0 mi WSW 16.1 mph 25.3 mph N/A   Overcast
10:55 AM 34.3 °F 25.0 °F 5.0 °F 29% 30.04 in 10.0 mi WSW 13.8 mph 24.2 mph N/A   Mostly Cloudy
11:15 AM 35.2 °F 26.6 °F 5.2 °F 28% 30.04 in 10.0 mi West 12.7 mph 21.9 mph N/A   Mostly Cloudy
11:35 AM 35.8 °F 25.4 °F 4.8 °F 27% 30.05 in 10.0 mi WSW 18.4 mph 25.3 mph N/A   Mostly Cloudy
11:55 AM 36.9 °F 27.5 °F 4.8 °F 26% 30.04 in 10.0 mi West 16.1 mph 23.0 mph N/A   Overcast
12:15 PM 38.1 °F 29.5 °F 2.8 °F 23% 30.03 in 10.0 mi West 15.0 mph 25.3 mph N/A   Overcast
12:35 PM 37.9 °F 28.9 °F 1.9 °F 22% 30.02 in 10.0 mi WSW 16.1 mph 23.0 mph N/A   Mostly Cloudy
12:55 PM 38.5 °F 30.3 °F 3.4 °F 23% 30.01 in 10.0 mi West 13.8 mph 24.2 mph N/A   Scattered Clouds
1:15 PM 38.8 °F 31.2 °F 1.2 °F 21% 30.01 in 10.0 mi West 12.7 mph 19.6 mph N/A   Scattered Clouds
1:35 PM 38.1 °F 29.5 °F 1.2 °F 21% 30.01 in 10.0 mi WSW 15.0 mph 20.7 mph N/A   Mostly Cloudy
2:15 PM 38.7 °F 29.1 °F -1.3 °F 19% 30.01 in 10.0 mi WSW 18.4 mph 25.3 mph N/A   Overcast
2:35 PM 38.7 °F 30.1 °F -0.2 °F 19% 30.01 in 10.0 mi WSW 15.0 mph 24.2 mph N/A   Overcast
2:55 PM 38.7 °F 30.9 °F 0.3 °F 20% 30.01 in 10.0 mi WSW 12.7 mph 17.3 mph N/A   Overcast
3:15 PM 38.8 °F 31.6 °F 1.9 °F 21% 30.00 in 10.0 mi WSW 11.5 mph 16.1 mph N/A   Overcast
3:35 PM 40.1 °F 33.2 °F 2.7 °F 21% 30.00 in 10.0 mi WSW 11.5 mph - N/A   Mostly Cloudy
3:55 PM 39.4 °F 30.7 °F 1.8 °F 21% 30.00 in 10.0 mi WSW 16.1 mph 19.6 mph N/A   Overcast
4:15 PM 39.0 °F 30.6 °F 3.2 °F 22% 30.00 in 10.0 mi WSW 15.0 mph 21.9 mph N/A   Overcast
4:35 PM 38.7 °F 32.4 °F 3.4 °F 23% 29.99 in 10.0 mi WSW 9.2 mph - N/A   Overcast
4:55 PM 38.7 °F 31.8 °F 4.5 °F 24% 30.00 in 10.0 mi WSW 10.4 mph - N/A   Overcast
5:15 PM 38.7 °F 29.8 °F 4.1 °F 24% 30.00 in 10.0 mi West 16.1 mph 20.7 mph N/A   Overcast
5:35 PM 37.9 °F 29.6 °F 7.5 °F 28% 30.01 in 10.0 mi WSW 13.8 mph 21.9 mph N/A   Overcast
5:55 PM 37.4 °F 30.8 °F 10.9 °F 34% 30.01 in 7.0 mi WSW 9.2 mph 21.9 mph N/A Snow Light Snow
6:15 PM 37.4 °F 29.3 °F 11.8 °F 35% 30.01 in 10.0 mi WSW 12.7 mph 18.4 mph N/A   Overcast
6:35 PM 37.6 °F 30.0 °F 11.3 °F 34% 30.00 in 10.0 mi WSW 11.5 mph - N/A   Overcast
6:55 PM 37.8 °F 31.8 °F 10.6 °F 33% 30.00 in 10.0 mi WSW 8.1 mph - N/A   Overcast
7:15 PM 37.9 °F 32.1 °F 10.8 °F 33% 29.98 in 10.0 mi WSW 8.1 mph - N/A   Overcast
7:35 PM 38.3 °F 32.5 °F 10.4 °F 32% 29.98 in 10.0 mi WSW 8.1 mph - N/A   Overcast
7:55 PM 38.8 °F 29.4 °F 8.6 °F 29% 29.98 in 10.0 mi West 18.4 mph 23.0 mph N/A   Overcast
8:15 PM 38.8 °F 30.8 °F 10.8 °F 32% 29.99 in 10.0 mi West 13.8 mph 24.2 mph N/A   Overcast
8:35 PM 36.7 °F 27.6 °F 17.2 °F 45% 30.01 in 5.0 mi West 15.0 mph 27.6 mph N/A Snow Light Snow
8:55 PM 34.2 °F 24.0 °F 23.9 °F 66% 30.03 in 1.0 mi West 16.1 mph 25.3 mph N/A Snow Light Snow
9:15 PM 32.9 °F 23.2 °F 29.7 °F 88% 30.04 in 0.8 mi West 13.8 mph 25.3 mph N/A Snow Light Snow
9:35 PM 32.2 °F - 28.6 °F 87% 30.05 in 0.5 mi North - - N/A Snow Snow
9:55 PM 30.7 °F 19.6 °F 24.4 °F 77% 30.08 in 1.8 mi NW 16.1 mph - N/A Snow Light Snow
10:15 PM 28.8 °F 17.5 °F 14.5 °F 55% 30.11 in 7.0 mi WNW 15.0 mph 28.8 mph N/A Snow Light Snow
10:35 PM 27.9 °F 18.4 °F 13.3 °F 54% 30.12 in 10.0 mi NW 10.4 mph 28.8 mph N/A   Overcast
10:55 PM 26.6 °F 15.2 °F 9.9 °F 49% 30.14 in 10.0 mi WNW 13.8 mph 23.0 mph N/A   Overcast
11:15 PM 25.3 °F 13.1 °F 7.0 °F 46% 30.16 in 10.0 mi WNW 15.0 mph 24.2 mph N/A   Overcast
11:35 PM 23.9 °F 10.8 °F 3.7 °F 42% 30.18 in 10.0 mi WNW 16.1 mph - N/A   Mostly Cloudy
11:55 PM 22.6 °F 10.1 °F 1.4 °F 40% 30.20 in 10.0 mi NW 13.8 mph 27.6 mph N/A   Mostly Cloudy